[[{"header":{"parameterUnit":"m.s-1","parameterCategory":2,"la1":30.2991,"la2":30.254,"lo1":-89.0895,"lo2":-89.0444,"dy":0.0017,"dx":0.0017,"nx":28,"ny":28,"refTime":"2025-11-22T09:00:00:Z","depth":"0","parameterNumber":2,"parameterNumberName":"U-component_of_CURRENTS"},"data":[0,0,0,0,0,0,0,0,0,0,0,0,0,0,0,0,0,0,0,0,0,0,0,0,0,0,0,0,0,0,0,0,0,0,0,0,0,0,0,0,0,0,0,0,0,0,0,0,0,0,0,0,0,0,0,0,0,0,0.3885,0.3886,0,0.3958,0.3958,0.3959,0.3952,0.3952,0.3951,0.395,0.3969,0.3971,0.3972,0,0,0,0,0,0,0,0,0,0,0,0,0,0.3764,0.3766,0.3885,0.3886,0.3888,0.3958,0.3958,0.3959,0.3952,0.3951,0.3951,0.395,0.3969,0.397,0.3972,0,0,0,0,0,0,0,0,0,0,0,0,0,0.382,0.3766,0.3885,0.3897,0.3899,0.3958,0.3958,0.3959,0.3952,0.3951,0.395,0.395,0.3969,0.397,0.3972,0.4002,0,0,0.3977,0.3978,0,0,0,0,0,0,0,0,0.3817,0.3823,0.3894,0.3896,0.3899,0.395,0.3923,0.3972,0.3953,0.3927,0.395,0.3949,0.3962,0.3964,0.3973,0.4003,0.4003,0.3977,0.3978,0.3979,0.3979,0,0,0,0,0,0,0,0.3813,0.3821,0.3909,0.3895,0.3898,0.3907,0.3913,0.3932,0.3944,0.3929,0.393,0.3947,0.3962,0.3972,0.3974,0.4004,0.3977,0.3979,0.398,0.398,0.4101,0.4104,0,0,0,0,0,0,0.3814,0.3817,0.3906,0.3911,0.386,0.391,0.3917,0.393,0.3945,0.3948,0.3947,0.3946,0.3969,0.3972,0.3974,0.4062,0.3979,0.398,0.3981,0.4099,0.4102,0.4104,0,0,0,0,0,0,0.3811,0.3822,0.3904,0.387,0.3882,0.3914,0.3928,0.3932,0.395,0.396,0.3961,0.3963,0.3969,0.3972,0.4012,0.4061,0.3981,0.3983,0.4097,0.41,0.4103,0.4205,0,0,0,0,0,0,0.3808,0.382,0.383,0.387,0.3884,0.3957,0.393,0.3934,0.3964,0.3963,0.3974,0.3975,0.3968,0.401,0.4014,0.4062,0.3984,0.4094,0.4098,0.4102,0.4199,0.4211,0.4222,0,0,0,0,0,0.3803,0.3824,0.383,0.3842,0.3897,0.3959,0.3968,0.3983,0.3966,0.399,0.3997,0.3975,0.4039,0.4014,0.4017,0.4067,0.4092,0.4097,0.4102,0.4193,0.4209,0.4222,0,0,0,0,0,0,0.3776,0.3828,0.3834,0.3869,0.392,0.3961,0.3983,0.3993,0.4017,0.4011,0.4004,0.4007,0.4063,0.405,0.4022,0.4114,0.4062,0.4068,0.413,0.4144,0.4156,0.4167,0.3985,0,0,0,0,0,0.3777,0.3807,0.3861,0.3892,0.3914,0.3949,0.3974,0.3993,0.4022,0.4031,0.4035,0.4049,0.4088,0.4102,0.4125,0.4173,0.4197,0.4207,0.4218,0.4228,0.4241,0.4324,0.4344,0.4121,0.4121,0.4121,0,0,0.3775,0.381,0.3825,0.3889,0.3919,0.3973,0.396,0.4011,0.4058,0.403,0.4076,0.4091,0.4111,0.4171,0.4194,0.4165,0.431,0.4235,0.4243,0.4251,0.4331,0.4353,0.4373,0.4124,0.4123,0.4123,0,0,0.3794,0.3818,0.385,0.3897,0.3962,0.3995,0.4014,0.4063,0.4085,0.4142,0.414,0.4187,0.422,0.4258,0.428,0.4369,0.4371,0.4371,0.4439,0.452,0.4539,0.4556,0.4637,0.466,0.4374,0.4374,0.4374,0,0.3788,0.384,0.3872,0.3923,0.3967,0.4008,0.4062,0.4104,0.4159,0.4191,0.4167,0.4264,0.4269,0.4375,0.4403,0.4398,0.4441,0.4384,0.4537,0.4554,0.457,0.4648,0.4672,0.4379,0.4379,0.4378,0.4378,0,0.3836,0.3882,0.3909,0.3985,0.4038,0.4096,0.4163,0.4208,0.4232,0.4274,0.4368,0.4394,0.445,0.4468,0.4462,0.4587,0.4582,0.4546,0.4502,0.4599,0.4675,0.4699,0.4387,0.4385,0.4384,0.4382,0,0,0.3808,0.3919,0.3927,0.3969,0.4077,0.412,0.4212,0.4308,0.437,0.4424,0.4515,0.4585,0.4595,0.4622,0.4634,0.4702,0.4851,0.4674,0.4675,0.4757,0.5046,0.5005,0.5026,0.4845,0.4849,0.4853,0.5062,0,0.3837,0.3926,0.3985,0.4077,0.4131,0.4205,0.4285,0.4376,0.4452,0.4547,0.4611,0.4697,0.4659,0.47,0.4767,0.4837,0.4915,0.4798,0.4937,0.4942,0.4896,0.5053,0.4823,0.4986,0.5085,0.5089,0.5092,0,0.3864,0.3923,0.4009,0.4122,0.415,0.4209,0.4343,0.4424,0.4575,0.4645,0.4753,0.4803,0.4936,0.4872,0.5054,0.4984,0.5025,0.5066,0.5074,0.5014,0.4945,0.4901,0.5025,0.4908,0.5128,0.5125,0.5122,0,0.3821,0.3939,0.4002,0.4043,0.4176,0.4221,0.4291,0.4439,0.4528,0.4714,0.4793,0.4955,0.5031,0.5132,0.5203,0.5149,0.5394,0.5323,0.5331,0.5329,0.5149,0.5123,0.5173,0.5452,0.5452,0.5451,0.545,0,0.3832,0.3879,0.3977,0.401,0.4094,0.4184,0.4298,0.4404,0.4571,0.4705,0.4821,0.4971,0.5096,0.5233,0.5288,0.5406,0.5466,0.5392,0.5398,0.5179,0.5154,0.5052,0.4993,0.5459,0.5457,0.5456,0.5454,0,0.3788,0.3851,0.3928,0.4043,0.4078,0.4131,0.4289,0.4381,0.4527,0.4711,0.4775,0.5013,0.5223,0.5328,0.5525,0.5501,0.5478,0.5633,0.5372,0.5343,0.5213,0.5167,0.5064,0.491,0.57,0.57,0.5701,0,0.3778,0.3812,0.3929,0.3976,0.4027,0.4119,0.42,0.4359,0.4471,0.4755,0.4844,0.5091,0.5269,0.5534,0.5579,0.5693,0.5521,0.5522,0.5366,0.5225,0.518,0.4969,0.483,0.5181,0.5177,0.5174,0.5171,0,0.377,0.3806,0.387,0.3958,0.403,0.4118,0.4231,0.4309,0.4515,0.4665,0.4903,0.5062,0.5312,0.5363,0.5488,0.5526,0.5252,0.5461,0.5376,0.4851,0.4563,0.4407,0.5035,0.5143,0.5146,0.5148,0.5149,0.515,0.3761,0.3799,0.3875,0.3954,0.4024,0.4084,0.4119,0.4251,0.4394,0.4563,0.4832,0.4959,0.5114,0.5278,0.528,0.5123,0.5101,0.4965,0.4952,0.4776,0.4519,0.5103,0.517,0.5172,0.5175,0.5177,0.5179,0,0.3761,0.3805,0.3875,0.394,0.3969,0.4026,0.4121,0.4124,0.4225,0.4415,0.458,0.4692,0.4753,0.4824,0.4777,0.4611,0.4366,0.4512,0.4144,0.4055,0.4641,0.4509,0.4358,0.4358,0.4358,0.4358,0.4358,0.4359,0.3766,0.3814,0.3846,0.3866,0.3896,0.3864,0.3884,0.3896,0.3968,0.4017,0.4041,0.415,0.4393,0.4533,0.4378,0.4262,0.3923,0.376,0.3781,0.4191,0.4229,0.4266,0.4128,0.39,0.3899,0.2967,0.296,0.2955]},{"header":{"parameterUnit":"m.s-1","parameterCategory":2,"la1":30.2991,"la2":30.254,"lo1":-89.0895,"lo2":-89.0444,"dy":0.0017,"dx":0.0017,"nx":28,"ny":28,"refTime":"2025-11-22T09:00:00:Z","depth":"0","parameterNumber":3,"parameterNumberName":"V-component_of_CURRENTS"},"data":[0,0,0,0,0,0,0,0,0,0,0,0,0,0,0,0,0,0,0,0,0,0,0,0,0,0,0,0,0,0,0,0,0,0,0,0,0,0,0,0,0,0,0,0,0,0,0,0,0,0,0,0,0,0,0,0,0,0,-0.027,-0.0271,0,-0.0335,-0.0336,-0.0337,-0.0384,-0.0385,-0.0385,-0.0385,-0.0506,-0.0509,-0.0512,0,0,0,0,0,0,0,0,0,0,0,0,0,-0.0236,-0.0236,-0.027,-0.0271,-0.0272,-0.0335,-0.0336,-0.0337,-0.0384,-0.0385,-0.0385,-0.0386,-0.0505,-0.0509,-0.0512,0,0,0,0,0,0,0,0,0,0,0,0,0,-0.0271,-0.0236,-0.027,-0.0303,-0.0306,-0.0335,-0.0336,-0.0337,-0.0384,-0.0385,-0.0385,-0.0386,-0.0504,-0.0508,-0.0513,-0.0527,0,0,-0.0526,-0.0527,0,0,0,0,0,0,0,0,-0.0269,-0.0272,-0.0297,-0.0301,-0.0305,-0.0352,-0.0368,-0.0403,-0.0384,-0.0355,-0.0385,-0.0386,-0.0459,-0.0467,-0.0478,-0.0533,-0.0538,-0.0526,-0.0529,-0.053,-0.0532,0,0,0,0,0,0,0,-0.0266,-0.027,-0.0296,-0.0298,-0.0303,-0.0331,-0.0336,-0.0375,-0.0404,-0.0358,-0.0361,-0.0368,-0.0462,-0.0473,-0.0481,-0.054,-0.0526,-0.053,-0.0532,-0.0534,-0.0626,-0.0625,0,0,0,0,0,0,-0.0255,-0.0267,-0.0294,-0.0298,-0.0288,-0.0331,-0.0337,-0.0336,-0.0403,-0.0413,-0.0367,-0.037,-0.0466,-0.0476,-0.0486,-0.0511,-0.053,-0.0534,-0.0537,-0.0626,-0.0626,-0.0625,0,0,0,0,0,0,-0.0254,-0.0256,-0.0292,-0.0285,-0.0291,-0.0331,-0.033,-0.0337,-0.0351,-0.0409,-0.0421,-0.0373,-0.0467,-0.048,-0.0518,-0.0516,-0.0536,-0.054,-0.0626,-0.0626,-0.0625,-0.056,0,0,0,0,0,0,-0.0252,-0.0255,-0.0251,-0.0283,-0.0291,-0.0304,-0.033,-0.0338,-0.0354,-0.0358,-0.0418,-0.043,-0.0468,-0.0512,-0.0523,-0.0522,-0.0544,-0.0626,-0.0626,-0.0626,-0.0562,-0.0557,-0.0553,0,0,0,0,0,-0.0251,-0.0236,-0.025,-0.0254,-0.0284,-0.0304,-0.031,-0.0341,-0.0353,-0.0355,-0.0396,-0.0428,-0.0518,-0.0515,-0.0528,-0.0529,-0.0626,-0.0626,-0.0626,-0.0564,-0.0558,-0.0553,0,0,0,0,0,0,-0.0216,-0.024,-0.0257,-0.025,-0.0275,-0.0312,-0.0313,-0.0336,-0.0368,-0.0371,-0.0428,-0.0442,-0.0478,-0.051,-0.0505,-0.0554,-0.0577,-0.0579,-0.0526,-0.0521,-0.0516,-0.0487,-0.0547,0,0,0,0,0,-0.0207,-0.0205,-0.0236,-0.0233,-0.024,-0.0277,-0.0288,-0.0308,-0.0341,-0.0355,-0.0397,-0.0442,-0.0486,-0.0507,-0.055,-0.0574,-0.0589,-0.0583,-0.0578,-0.0574,-0.0559,-0.0599,-0.0597,-0.0624,-0.0624,-0.0624,0,0,-0.0195,-0.0207,-0.0207,-0.0227,-0.0246,-0.0243,-0.0285,-0.0294,-0.0294,-0.0364,-0.0377,-0.0431,-0.049,-0.052,-0.0538,-0.0546,-0.0568,-0.0574,-0.057,-0.0557,-0.0599,-0.0596,-0.0594,-0.0624,-0.0624,-0.0624,0,0,-0.0159,-0.0177,-0.016,-0.0175,-0.0197,-0.0218,-0.0217,-0.025,-0.0267,-0.0289,-0.0343,-0.0389,-0.0447,-0.049,-0.0519,-0.0514,-0.0547,-0.0533,-0.0484,-0.0523,-0.0521,-0.0519,-0.0502,-0.0499,-0.0526,-0.0526,-0.0526,0,-0.0143,-0.0125,-0.016,-0.0146,-0.0147,-0.02,-0.0178,-0.0204,-0.0246,-0.0256,-0.0282,-0.0373,-0.0429,-0.0469,-0.0472,-0.0504,-0.0514,-0.0499,-0.0516,-0.0515,-0.0514,-0.0498,-0.0495,-0.0523,-0.0523,-0.0524,-0.0524,0,-0.0094,-0.0082,-0.0071,-0.007,-0.0078,-0.007,-0.0105,-0.0116,-0.0145,-0.0176,-0.0221,-0.0301,-0.0349,-0.0385,-0.0429,-0.0457,-0.0459,-0.0509,-0.0525,-0.0507,-0.0491,-0.049,-0.0518,-0.052,-0.052,-0.0521,0,0,-0.0047,-0.0037,-0.0032,-0.0012,-0.0034,-0.0028,-0.0031,-0.0045,-0.0032,-0.0101,-0.0096,-0.0198,-0.0245,-0.0282,-0.0353,-0.0396,-0.0401,-0.0444,-0.0447,-0.0415,-0.0445,-0.0411,-0.0406,-0.0461,-0.0461,-0.0461,-0.0422,0,0.0003,0.0059,0.0042,0.0091,0.0118,0.0076,0.0079,0.0056,0.0029,0.0019,-0.008,-0.0111,-0.0206,-0.0227,-0.0288,-0.0373,-0.0401,-0.0404,-0.0475,-0.0476,-0.0441,-0.0406,-0.0386,-0.0348,-0.0421,-0.0421,-0.0421,0,0.0061,0.0093,0.0153,0.0185,0.0192,0.0204,0.0219,0.0217,0.0174,0.0153,0.0097,0.0024,-0.0047,-0.0134,-0.0255,-0.0252,-0.0335,-0.0407,-0.0408,-0.0399,-0.0441,-0.0386,-0.0344,-0.0574,-0.042,-0.042,-0.042,0,0.0125,0.0174,0.023,0.0239,0.0257,0.0273,0.0278,0.0256,0.0286,0.0242,0.0265,0.0147,0.0126,-0.0021,-0.0153,-0.0211,-0.0263,-0.0363,-0.0403,-0.04,-0.0406,-0.0403,-0.0588,-0.0444,-0.0444,-0.0444,-0.0444,0,0.0191,0.0237,0.0267,0.0297,0.0366,0.0347,0.0416,0.0397,0.0411,0.0487,0.0341,0.0399,0.015,0.009,-0.0081,-0.0195,-0.02,-0.0369,-0.0391,-0.0378,-0.0373,-0.0594,-0.0738,-0.0443,-0.0443,-0.0443,-0.0443,0,0.025,0.0266,0.0339,0.0379,0.0398,0.0447,0.052,0.0578,0.0566,0.0669,0.0666,0.0604,0.0541,0.0322,0.0133,-0.0055,-0.0321,-0.0247,-0.018,-0.0196,-0.0495,-0.0635,-0.0812,-0.0904,-0.0309,-0.0308,-0.0308,0,0.0286,0.0329,0.0406,0.0465,0.0487,0.0565,0.0626,0.0647,0.0737,0.0837,0.0909,0.0875,0.0926,0.0668,0.032,0.005,-0.0211,-0.0149,-0.0285,-0.0484,-0.0658,-0.077,-0.0843,-0.0253,-0.0251,-0.025,-0.025,0,0.0361,0.0382,0.0446,0.0557,0.0639,0.0752,0.0854,0.0956,0.1029,0.1153,0.1341,0.1398,0.1165,0.0923,0.0509,0.0274,-0.0321,-0.0137,-0.0387,-0.0652,-0.0744,-0.0849,-0.0273,-0.0241,-0.0241,-0.0242,-0.0243,-0.0243,0.0419,0.0476,0.0556,0.0664,0.0777,0.0935,0.1054,0.122,0.1422,0.1674,0.1708,0.1884,0.1437,0.089,0.0525,-0.0188,-0.023,-0.0439,-0.0589,-0.0681,-0.0794,-0.0158,-0.0135,-0.0135,-0.0136,-0.0136,-0.0136,0,0.0491,0.0554,0.066,0.0802,0.0951,0.0985,0.1207,0.1375,0.1673,0.1972,0.2193,0.2117,0.1554,0.0908,-0.0048,-0.0555,-0.0784,-0.0853,-0.1054,-0.1109,-0.0575,-0.06,-0.0623,-0.0623,-0.0623,-0.0623,-0.0623,-0.0622,0.0535,0.0636,0.0682,0.092,0.1039,0.1249,0.1392,0.1678,0.1936,0.2351,0.2531,0.2622,0.2088,0.0383,-0.0772,-0.1044,-0.1443,-0.1516,-0.17,-0.1399,-0.1374,-0.1351,-0.141,-0.1602,-0.1604,-0.217,-0.2176,-0.2181]}],[{"header":{"parameterUnit":"m.s-1","parameterCategory":2,"la1":30.2991,"la2":30.254,"lo1":-89.0895,"lo2":-89.0444,"dy":0.0017,"dx":0.0017,"nx":28,"ny":28,"refTime":"2025-11-22T09:00:00:Z","depth":"2","parameterNumber":2,"parameterNumberName":"U-component_of_CURRENTS"},"data":[0,0,0,0,0,0,0,0,0,0,0,0,0,0,0,0,0,0,0,0,0,0,0,0,0,0,0,0,0,0,0,0,0,0,0,0,0,0,0,0,0,0,0,0,0,0,0,0,0,0,0,0,0,0,0,0,0,0,0.2998,0.2999,0,0.3049,0.305,0.305,0.3079,0.3079,0.3079,0.3079,0.3092,0.3092,0.3092,0,0,0,0,0,0,0,0,0,0,0,0,0,0.2908,0.291,0.2998,0.2999,0.2999,0.3049,0.305,0.305,0.3079,0.3079,0.3079,0.3079,0.3092,0.3092,0.3092,0,0,0,0,0,0,0,0,0,0,0,0,0,0.2953,0.2911,0.2998,0.3018,0.3021,0.3049,0.305,0.3051,0.3079,0.3079,0.3079,0.3079,0.3091,0.3092,0.3092,0.3096,0,0,0.3094,0.3094,0,0,0,0,0,0,0,0,0.2951,0.2957,0.3015,0.3017,0.302,0.3057,0.3023,0.3064,0.3079,0.3058,0.3079,0.3079,0.3076,0.3078,0.3089,0.3097,0.3097,0.3094,0.3094,0.3095,0.3095,0,0,0,0,0,0,0,0.2948,0.2954,0.3019,0.3015,0.3018,0.3019,0.3026,0.3031,0.3066,0.306,0.3062,0.3066,0.3077,0.3089,0.309,0.3098,0.3094,0.3095,0.3095,0.3095,0.3204,0.3207,0,0,0,0,0,0,0.294,0.2952,0.3018,0.3021,0.2983,0.3021,0.3028,0.3046,0.3067,0.3071,0.3065,0.3067,0.3088,0.3089,0.309,0.317,0.3095,0.3095,0.3096,0.3202,0.3205,0.3208,0,0,0,0,0,0,0.2938,0.2946,0.3016,0.2985,0.2994,0.3022,0.3042,0.3047,0.3065,0.3072,0.3075,0.3079,0.3088,0.3089,0.3118,0.3167,0.3095,0.3096,0.3199,0.3203,0.3206,0.3281,0,0,0,0,0,0,0.2936,0.2946,0.2963,0.2986,0.2996,0.3043,0.3042,0.3048,0.3066,0.3069,0.3084,0.3085,0.3088,0.3118,0.3119,0.3167,0.3096,0.3195,0.32,0.3205,0.3275,0.3286,0.3296,0,0,0,0,0,0.2933,0.295,0.2964,0.2972,0.3017,0.3044,0.305,0.3069,0.3067,0.3084,0.3101,0.3085,0.315,0.312,0.3121,0.317,0.3193,0.3199,0.3205,0.327,0.3284,0.3296,0,0,0,0,0,0,0.2914,0.2955,0.2971,0.2999,0.3026,0.3048,0.3065,0.3072,0.3099,0.3109,0.3104,0.3108,0.3159,0.3152,0.3118,0.3219,0.3174,0.3181,0.3224,0.3237,0.3248,0.3264,0.3097,0,0,0,0,0,0.292,0.2946,0.2982,0.3003,0.3021,0.3044,0.3058,0.3078,0.31,0.3112,0.313,0.3155,0.3183,0.3197,0.3223,0.3261,0.3276,0.33,0.3311,0.332,0.3337,0.3399,0.3417,0.3227,0.3227,0.3226,0,0,0.2918,0.2941,0.2958,0.3001,0.3024,0.306,0.3054,0.3088,0.313,0.3108,0.3174,0.319,0.3202,0.3263,0.3285,0.3261,0.3385,0.3327,0.3335,0.3347,0.3407,0.3425,0.3442,0.3231,0.323,0.3229,0,0,0.2924,0.2952,0.2982,0.3012,0.3056,0.3075,0.3085,0.3132,0.317,0.3223,0.3234,0.3281,0.3312,0.3351,0.3364,0.3446,0.344,0.3455,0.3521,0.3581,0.3597,0.3611,0.3662,0.368,0.346,0.346,0.346,0,0.2925,0.2966,0.2992,0.303,0.3065,0.3082,0.313,0.3166,0.3221,0.3262,0.3256,0.3352,0.3361,0.3438,0.3479,0.3472,0.3499,0.3464,0.3595,0.3609,0.3622,0.3671,0.369,0.3465,0.3464,0.3464,0.3463,0,0.2952,0.2997,0.3013,0.3075,0.3116,0.3154,0.3214,0.3262,0.3299,0.334,0.3435,0.3467,0.3523,0.3542,0.3534,0.3642,0.3629,0.3599,0.3557,0.3646,0.3691,0.371,0.3471,0.3469,0.3468,0.3467,0,0,0.2933,0.302,0.3028,0.3069,0.3151,0.3178,0.3264,0.3343,0.34,0.3467,0.3549,0.3623,0.3647,0.3667,0.3679,0.3737,0.3856,0.3715,0.3716,0.3759,0.3993,0.3915,0.3927,0.3846,0.385,0.3852,0.399,0,0.2952,0.3023,0.3074,0.3147,0.3196,0.3259,0.3327,0.3406,0.3484,0.3565,0.3623,0.3701,0.3691,0.3732,0.3792,0.3849,0.3907,0.3821,0.3908,0.3911,0.3825,0.3947,0.3647,0.3738,0.4007,0.401,0.4012,0,0.2964,0.3018,0.3094,0.3196,0.3224,0.3272,0.3394,0.347,0.3588,0.3654,0.3749,0.3787,0.3905,0.3864,0.4019,0.3967,0.3993,0.4021,0.4026,0.394,0.3868,0.3693,0.3761,0.4043,0.404,0.4038,0.4036,0,0.2923,0.3028,0.3084,0.3119,0.3233,0.3292,0.3365,0.3497,0.3582,0.3728,0.3798,0.3916,0.4001,0.4064,0.4129,0.4091,0.4272,0.4218,0.417,0.4164,0.392,0.3887,0.4312,0.4312,0.4312,0.4311,0.4311,0,0.2911,0.2959,0.3065,0.3093,0.3172,0.3279,0.3386,0.348,0.363,0.373,0.3843,0.3938,0.406,0.4159,0.4182,0.4252,0.4322,0.4219,0.4209,0.3938,0.3906,0.4167,0.4148,0.4316,0.4315,0.4314,0.4313,0,0.2858,0.2915,0.2986,0.311,0.315,0.3214,0.3383,0.3464,0.3622,0.3764,0.3814,0.4003,0.415,0.4234,0.4362,0.4334,0.4387,0.4373,0.4048,0.3998,0.4225,0.4209,0.4364,0.4363,0.4362,0.4361,0.436,0,0.2844,0.2864,0.2979,0.3004,0.3062,0.3174,0.325,0.3436,0.3533,0.3787,0.3838,0.404,0.413,0.4301,0.4312,0.4358,0.4394,0.4079,0.395,0.4263,0.4239,0.4224,0.421,0.3661,0.3654,0.3649,0.3645,0,0.2816,0.2838,0.2891,0.2944,0.3014,0.3109,0.3241,0.3298,0.3517,0.3624,0.3778,0.3876,0.408,0.401,0.4094,0.4066,0.4052,0.3974,0.4409,0.369,0.361,0.3582,0.359,0.3598,0.3603,0.3606,0.3609,0.3611,0.2788,0.281,0.2846,0.2885,0.296,0.3027,0.3035,0.3168,0.3268,0.3384,0.3585,0.3635,0.3746,0.3728,0.3639,0.3593,0.3863,0.3684,0.3696,0.3715,0.3605,0.3527,0.3479,0.3483,0.3487,0.3489,0.3492,0,0.2746,0.2766,0.2786,0.2825,0.283,0.2922,0.3002,0.2948,0.2971,0.3156,0.3241,0.3068,0.3073,0.3166,0.3044,0.3073,0.3001,0.2934,0.2804,0.2857,0.2902,0.2744,0.2393,0.2389,0.2385,0.2381,0,0,0.2727,0.271,0.271,0.267,0.2697,0.2672,0.2669,0.2605,0.2653,0.2624,0.2664,0.2937,0.3097,0.2694,0.2672,0.2501,0.2639,0.2408,0.3308,0.3209,0.3248,0.3378,0.3202,0,0,0,0,0]},{"header":{"parameterUnit":"m.s-1","parameterCategory":2,"la1":30.2991,"la2":30.254,"lo1":-89.0895,"lo2":-89.0444,"dy":0.0017,"dx":0.0017,"nx":28,"ny":28,"refTime":"2025-11-22T09:00:00:Z","depth":"2","parameterNumber":3,"parameterNumberName":"V-component_of_CURRENTS"},"data":[0,0,0,0,0,0,0,0,0,0,0,0,0,0,0,0,0,0,0,0,0,0,0,0,0,0,0,0,0,0,0,0,0,0,0,0,0,0,0,0,0,0,0,0,0,0,0,0,0,0,0,0,0,0,0,0,0,0,0.0089,0.0089,0,0.0034,0.0033,0.0032,-0.0021,-0.0021,-0.0022,-0.0022,-0.0106,-0.0108,-0.011,0,0,0,0,0,0,0,0,0,0,0,0,0,0.0106,0.0106,0.0089,0.0089,0.0088,0.0034,0.0033,0.0032,-0.0021,-0.0021,-0.0022,-0.0022,-0.0105,-0.0108,-0.011,0,0,0,0,0,0,0,0,0,0,0,0,0,0.0077,0.0106,0.0089,0.0057,0.0054,0.0034,0.0033,0.0031,-0.0021,-0.0021,-0.0022,-0.0023,-0.0105,-0.0107,-0.011,-0.0114,0,0,-0.0118,-0.012,0,0,0,0,0,0,0,0,0.0079,0.0076,0.0062,0.0059,0.0056,0.0015,0.0008,-0.0018,-0.0021,0.0005,-0.0022,-0.0023,-0.0066,-0.0072,-0.0084,-0.0118,-0.0122,-0.0119,-0.012,-0.0122,-0.0122,0,0,0,0,0,0,0,0.0081,0.0078,0.0064,0.0062,0.0058,0.0031,0.0026,0.0003,-0.0029,0.0002,-0.0001,-0.0003,-0.0069,-0.0082,-0.0087,-0.0123,-0.0119,-0.0121,-0.0123,-0.0124,-0.0177,-0.0176,0,0,0,0,0,0,0.0096,0.008,0.0066,0.0063,0.0069,0.0032,0.0026,0.0026,-0.0028,-0.0036,-0.0002,-0.0005,-0.0077,-0.0083,-0.009,-0.0091,-0.0122,-0.0124,-0.0126,-0.0177,-0.0176,-0.0176,0,0,0,0,0,0,0.0096,0.0095,0.0068,0.0072,0.0067,0.0033,0.0033,0.0026,0.0015,-0.0031,-0.004,-0.0005,-0.0077,-0.0086,-0.0104,-0.0095,-0.0125,-0.0128,-0.0177,-0.0177,-0.0176,-0.0098,0,0,0,0,0,0,0.0097,0.0096,0.0099,0.0073,0.0068,0.0068,0.0034,0.0025,0.0016,0.0011,-0.0036,-0.0045,-0.0079,-0.01,-0.0107,-0.0099,-0.013,-0.0177,-0.0177,-0.0176,-0.0101,-0.0095,-0.009,0,0,0,0,0,0.0098,0.0116,0.0099,0.0098,0.0074,0.007,0.0064,0.0035,0.0017,0.002,-0.0014,-0.0043,-0.0103,-0.0102,-0.011,-0.0103,-0.0178,-0.0177,-0.0176,-0.0103,-0.0096,-0.009,0,0,0,0,0,0,0.0127,0.0111,0.0093,0.0104,0.0091,0.0062,0.0063,0.0043,0.0018,0.0011,-0.0036,-0.0046,-0.0062,-0.0092,-0.009,-0.0119,-0.0147,-0.0148,-0.0088,-0.0082,-0.0077,-0.005,-0.0132,0,0,0,0,0,0.0135,0.0142,0.012,0.0129,0.0124,0.0093,0.0086,0.0068,0.0045,0.0032,-0.0002,-0.004,-0.0067,-0.008,-0.0112,-0.012,-0.0151,-0.0124,-0.0118,-0.0113,-0.0099,-0.0138,-0.0134,-0.0174,-0.0174,-0.0174,0,0,0.015,0.0142,0.0145,0.0135,0.0119,0.0131,0.0087,0.0085,0.0093,0.0028,0.0023,-0.0021,-0.0066,-0.008,-0.009,-0.0102,-0.0119,-0.0113,-0.0108,-0.0096,-0.0137,-0.0133,-0.013,-0.0174,-0.0174,-0.0174,0,0,0.0191,0.0174,0.0194,0.0189,0.0175,0.0161,0.0165,0.0137,0.012,0.0111,0.0063,0.003,-0.0011,-0.0041,-0.006,-0.0042,-0.009,-0.0058,-0.0006,-0.0044,-0.0041,-0.0038,-0.0072,-0.0073,-0.0053,-0.0053,-0.0053,0,0.0206,0.0231,0.02,0.0219,0.0228,0.0182,0.0212,0.0192,0.0161,0.0156,0.0121,0.0057,0.0011,0.0001,-0.0001,-0.0028,-0.0057,-0.0024,-0.0035,-0.0033,-0.0032,-0.0068,-0.007,-0.0049,-0.005,-0.005,-0.005,0,0.0265,0.0282,0.0296,0.0307,0.0311,0.033,0.0304,0.0296,0.0266,0.0243,0.0216,0.0145,0.0111,0.0082,0.0045,0.0033,0.0006,-0.0024,-0.0047,-0.0023,-0.0063,-0.0066,-0.0044,-0.0045,-0.0046,-0.0047,0,0,0.0306,0.0334,0.0338,0.0364,0.0362,0.0377,0.0387,0.039,0.0411,0.0345,0.0363,0.0281,0.0233,0.0207,0.0145,0.0103,0.0073,0.0048,0.0044,0.0025,-0.0008,-0.0041,-0.0048,0.0039,0.0039,0.0039,-0.0039,0,0.0362,0.043,0.0424,0.0489,0.0525,0.0494,0.0516,0.0507,0.0486,0.0486,0.0398,0.0386,0.0284,0.027,0.0209,0.0114,0.0067,0.0098,-0.0037,-0.004,-0.0064,-0.0052,-0.002,-0.0088,-0.0043,-0.0044,-0.0045,0,0.042,0.0464,0.0541,0.0594,0.0605,0.063,0.0665,0.0682,0.0661,0.0643,0.0599,0.0534,0.0463,0.0375,0.0216,0.0239,0.0125,0.0039,0.0033,-0.0023,-0.0079,-0.0106,-0.0097,-0.0051,-0.0051,-0.005,-0.005,0,0.0478,0.0544,0.0616,0.0633,0.068,0.0702,0.0723,0.0726,0.0767,0.075,0.0769,0.0663,0.0624,0.0465,0.0265,0.0245,0.0092,0.0042,-0.0095,-0.0099,-0.0109,-0.0114,-0.0065,-0.0065,-0.0065,-0.0064,-0.0064,0,0.0546,0.06,0.0647,0.0687,0.0776,0.0775,0.0863,0.0863,0.0898,0.097,0.0854,0.0875,0.0644,0.0521,0.0323,0.0106,0.0129,-0.0078,-0.0118,-0.0083,-0.0083,-0.0084,-0.0085,-0.0067,-0.0067,-0.0066,-0.0066,0,0.06,0.0628,0.0717,0.0781,0.0806,0.087,0.0965,0.1039,0.1039,0.113,0.1134,0.1042,0.0879,0.0634,0.039,0.0196,-0.0013,-0.0097,-0.0039,-0.0072,-0.0193,-0.0189,-0.0252,-0.0253,-0.0255,-0.0256,-0.0257,0,0.0635,0.0686,0.0789,0.0854,0.0886,0.0983,0.1063,0.1109,0.1201,0.1239,0.1296,0.1169,0.1101,0.0718,0.0369,0.0029,-0.0019,-0.0165,-0.0207,-0.0177,-0.0211,-0.0205,-0.0199,-0.0193,-0.0193,-0.0194,-0.0194,0,0.0711,0.074,0.0817,0.0954,0.1049,0.1177,0.1287,0.1387,0.1457,0.1509,0.1561,0.1507,0.1145,0.0804,0.0331,0.0105,-0.0112,-0.0184,-0.016,-0.015,-0.0129,-0.016,-0.0155,-0.0197,-0.0197,-0.0197,-0.0196,-0.0196,0.0762,0.0833,0.0935,0.1066,0.1184,0.135,0.1473,0.1598,0.1742,0.1829,0.1765,0.1674,0.1283,0.0677,0.0273,-0.0145,-0.0131,-0.028,-0.0276,-0.0272,-0.0251,-0.0233,-0.0317,-0.0317,-0.0318,-0.0318,-0.0318,0,0.0839,0.0918,0.1044,0.1204,0.1349,0.1402,0.1612,0.173,0.1902,0.1958,0.1969,0.159,0.1191,0.0742,0.0114,-0.026,-0.0276,-0.0368,-0.0312,-0.0306,-0.0302,-0.028,-0.0356,-0.0357,-0.0358,-0.0359,0,0,0.0883,0.1013,0.1082,0.1315,0.1433,0.1643,0.1775,0.1924,0.2008,0.2054,0.1994,0.1875,0.1323,0.0865,0.0352,-0.0007,-0.0063,-0.0067,0.0004,0.0137,0.0146,-0.0212,-0.0168,0,0,0,0,0]}],[{"header":{"parameterUnit":"m.s-1","parameterCategory":2,"la1":30.2991,"la2":30.254,"lo1":-89.0895,"lo2":-89.0444,"dy":0.0017,"dx":0.0017,"nx":28,"ny":28,"refTime":"2025-11-22T09:00:00:Z","depth":"4","parameterNumber":2,"parameterNumberName":"U-component_of_CURRENTS"},"data":[0,0,0,0,0,0,0,0,0,0,0,0,0,0,0,0,0,0,0,0,0,0,0,0,0,0,0,0,0,0,0,0,0,0,0,0,0,0,0,0,0,0,0,0,0,0,0,0,0,0,0,0,0,0,0,0,0,0,0.1873,0.1874,0,0.1959,0.196,0.196,0.2019,0.2019,0.202,0.2021,0.2109,0.211,0.2112,0,0,0,0,0,0,0,0,0,0,0,0,0,0.1757,0.1758,0.1873,0.1874,0.1876,0.1959,0.196,0.196,0.2019,0.2019,0.202,0.2021,0.2108,0.211,0.2112,0,0,0,0,0,0,0,0,0,0,0,0,0,0.1819,0.1759,0.1873,0.1917,0.1922,0.1958,0.196,0.1961,0.2018,0.2019,0.2021,0.2021,0.2107,0.211,0.2112,0.2108,0,0,0.212,0.2121,0,0,0,0,0,0,0,0,0.1815,0.1822,0.1909,0.1914,0.1919,0.1982,0.1951,0.2011,0.2018,0.1979,0.2021,0.2022,0.2067,0.2073,0.2083,0.2112,0.2116,0.212,0.2122,0.2123,0.2124,0,0,0,0,0,0,0,0.1811,0.1819,0.1904,0.191,0.1917,0.1931,0.1941,0.1962,0.2014,0.1982,0.1987,0.2001,0.207,0.208,0.2086,0.2117,0.212,0.2123,0.2124,0.2125,0.2238,0.224,0,0,0,0,0,0,0.1805,0.1815,0.1901,0.1907,0.1872,0.1933,0.1944,0.1958,0.2014,0.2024,0.2,0.2004,0.2076,0.2083,0.2089,0.2183,0.2123,0.2125,0.2127,0.2237,0.2239,0.224,0,0,0,0,0,0,0.1802,0.1812,0.1898,0.1865,0.1877,0.1934,0.195,0.196,0.2013,0.2028,0.2038,0.2049,0.2077,0.2085,0.2139,0.2183,0.2127,0.2129,0.2235,0.2237,0.2239,0.2309,0,0,0,0,0,0,0.1798,0.181,0.1836,0.1865,0.1879,0.1936,0.195,0.1961,0.2018,0.2025,0.2072,0.2079,0.2078,0.2135,0.2141,0.2186,0.2131,0.2233,0.2236,0.2239,0.2305,0.2314,0.2321,0,0,0,0,0,0.1794,0.1819,0.1837,0.1848,0.1907,0.1937,0.1946,0.1987,0.202,0.204,0.2079,0.208,0.2157,0.2138,0.2145,0.2192,0.2232,0.2235,0.2238,0.2302,0.2312,0.2321,0,0,0,0,0,0,0.1786,0.1829,0.1848,0.1888,0.1919,0.1949,0.1984,0.2012,0.206,0.2081,0.2098,0.2107,0.2172,0.2169,0.2148,0.2231,0.2195,0.22,0.2241,0.225,0.2258,0.2255,0.2133,0,0,0,0,0,0.1795,0.1826,0.1861,0.1896,0.1918,0.196,0.1988,0.2014,0.2052,0.2077,0.2109,0.2146,0.2183,0.2208,0.2231,0.2276,0.2286,0.231,0.2318,0.2324,0.2326,0.2379,0.2392,0.2251,0.2251,0.2251,0,0,0.18,0.1831,0.1849,0.1897,0.1931,0.1964,0.198,0.2031,0.2068,0.2077,0.2151,0.2179,0.2202,0.2254,0.2282,0.2263,0.2372,0.2329,0.2334,0.2333,0.2384,0.2398,0.241,0.2253,0.2253,0.2252,0,0,0.1811,0.1858,0.1883,0.1913,0.1968,0.1994,0.2018,0.2068,0.2107,0.2168,0.219,0.2246,0.2298,0.2322,0.2341,0.2406,0.2414,0.242,0.246,0.2512,0.2524,0.2535,0.2575,0.2589,0.2423,0.2423,0.2423,0,0.1819,0.1855,0.1895,0.1925,0.1956,0.2014,0.2043,0.209,0.2151,0.2184,0.2202,0.2305,0.233,0.2396,0.2422,0.2427,0.2452,0.2424,0.2523,0.2534,0.2544,0.2582,0.2597,0.2426,0.2426,0.2426,0.2425,0,0.1833,0.1877,0.19,0.1957,0.1993,0.2032,0.209,0.2146,0.2208,0.2246,0.2338,0.2379,0.2437,0.2461,0.2467,0.2551,0.2546,0.253,0.25,0.2562,0.2599,0.2613,0.2432,0.243,0.2429,0.2428,0,0,0.1806,0.1891,0.1904,0.1936,0.2014,0.2043,0.2119,0.2188,0.2259,0.2325,0.2405,0.2479,0.2514,0.2537,0.2562,0.2609,0.271,0.2607,0.2608,0.2648,0.2829,0.2674,0.2673,0.2719,0.2721,0.2723,0.2831,0,0.1808,0.1861,0.1907,0.1971,0.2002,0.2077,0.2145,0.222,0.2302,0.2394,0.2456,0.2549,0.2541,0.2599,0.2642,0.2704,0.2748,0.2683,0.2761,0.2763,0.2618,0.2684,0.2731,0.2841,0.2844,0.2846,0.2848,0,0.1799,0.1839,0.1892,0.1985,0.201,0.2067,0.2189,0.226,0.239,0.2458,0.2546,0.2606,0.2706,0.2691,0.281,0.2775,0.2807,0.2838,0.2843,0.2678,0.2631,0.2763,0.2872,0.287,0.2868,0.2867,0.2865,0,0.1742,0.183,0.1876,0.1905,0.2017,0.2074,0.2154,0.2283,0.2359,0.2519,0.2594,0.27,0.2792,0.2844,0.2913,0.2883,0.3032,0.2992,0.2874,0.2864,0.2942,0.2929,0.3064,0.3063,0.3063,0.3063,0.3063,0,0.1708,0.1748,0.1866,0.1889,0.1971,0.2063,0.2172,0.2275,0.2421,0.2511,0.2635,0.2718,0.2842,0.2932,0.2956,0.2961,0.3069,0.2891,0.2883,0.2969,0.2958,0.2952,0.2938,0.3067,0.3066,0.3065,0.3065,0,0.1629,0.1705,0.1766,0.1895,0.1945,0.2011,0.2174,0.224,0.2412,0.2537,0.2598,0.2774,0.2897,0.2986,0.3101,0.3014,0.3039,0.301,0.3117,0.3112,0.2823,0.2812,0.2877,0.2873,0.2869,0.2866,0.2863,0,0.1588,0.1612,0.1756,0.1797,0.1863,0.1975,0.2039,0.2217,0.2291,0.2543,0.2583,0.2778,0.287,0.2904,0.3009,0.3047,0.3008,0.299,0.2873,0.2819,0.2807,0.2801,0.2794,0.2857,0.2856,0.2855,0.2854,0,0.1499,0.1571,0.1622,0.1714,0.179,0.1858,0.1979,0.2018,0.2223,0.2399,0.2517,0.2595,0.273,0.281,0.2872,0.2884,0.2981,0.2948,0.2954,0.2844,0.2795,0.2785,0.2783,0.284,0.2842,0.2843,0.2844,0,0.1442,0.1456,0.1539,0.1607,0.1693,0.1718,0.1794,0.1887,0.199,0.2271,0.231,0.2518,0.2705,0.2729,0.2783,0.2792,0.2737,0.2623,0.2645,0.2661,0.2539,0.2442,0.2381,0,0,0,0,0,0.1375,0.1369,0.1417,0.1476,0.1554,0.1605,0.1737,0.1817,0.2022,0.2046,0.2177,0.2295,0.2402,0.2515,0.2482,0.2677,0.2735,0.2624,0.261,0.2766,0.2781,0.2657,0,0,0,0,0,0,0.1322,0.1357,0.1368,0.1353,0.1368,0.143,0.1502,0.1634,0.1669,0.1897,0.1973,0.2153,0.2294,0.2403,0.2439,0.2471,0.2412,0.2763,0.2757,0.2757,0.2771,0.2783,0.2661,0,0,0,0,0]},{"header":{"parameterUnit":"m.s-1","parameterCategory":2,"la1":30.2991,"la2":30.254,"lo1":-89.0895,"lo2":-89.0444,"dy":0.0017,"dx":0.0017,"nx":28,"ny":28,"refTime":"2025-11-22T09:00:00:Z","depth":"4","parameterNumber":3,"parameterNumberName":"V-component_of_CURRENTS"},"data":[0,0,0,0,0,0,0,0,0,0,0,0,0,0,0,0,0,0,0,0,0,0,0,0,0,0,0,0,0,0,0,0,0,0,0,0,0,0,0,0,0,0,0,0,0,0,0,0,0,0,0,0,0,0,0,0,0,0,0.0136,0.0136,0,0.0102,0.0101,0.0101,0.0071,0.007,0.007,0.007,0.0014,0.0013,0.0011,0,0,0,0,0,0,0,0,0,0,0,0,0,0.0144,0.0144,0.0136,0.0136,0.0136,0.0102,0.0101,0.01,0.0071,0.007,0.007,0.007,0.0014,0.0013,0.0011,0,0,0,0,0,0,0,0,0,0,0,0,0,0.0128,0.0144,0.0137,0.0117,0.0115,0.0102,0.0101,0.01,0.0071,0.007,0.007,0.007,0.0015,0.0013,0.0011,0.0008,0,0,0.0005,0.0004,0,0,0,0,0,0,0,0,0.0129,0.0127,0.012,0.0119,0.0116,0.0091,0.0083,0.0069,0.0071,0.0087,0.007,0.0069,0.0038,0.0034,0.0028,0.0005,0.0003,0.0005,0.0004,0.0003,0.0003,0,0,0,0,0,0,0,0.013,0.0129,0.0122,0.012,0.0118,0.0099,0.0096,0.008,0.0064,0.0086,0.0083,0.0081,0.0037,0.003,0.0026,0.0002,0.0005,0.0004,0.0002,0.0002,-0.0018,-0.0017,0,0,0,0,0,0,0.0138,0.013,0.0123,0.0121,0.0122,0.0099,0.0096,0.0099,0.0065,0.006,0.0081,0.0079,0.0033,0.0029,0.0024,0.0035,0.0003,0.0001,0.0,-0.0018,-0.0018,-0.0017,0,0,0,0,0,0,0.0138,0.0138,0.0124,0.0125,0.0122,0.01,0.0103,0.0098,0.0094,0.0062,0.0056,0.0081,0.0033,0.0027,0.0017,0.0032,0.0001,-0.0001,-0.0019,-0.0018,-0.0017,0.0045,0,0,0,0,0,0,0.0139,0.0138,0.0143,0.0126,0.0122,0.0128,0.0103,0.0098,0.0093,0.009,0.006,0.0054,0.0032,0.002,0.0015,0.0028,-0.0003,-0.002,-0.0019,-0.0018,0.0042,0.0048,0.0053,0,0,0,0,0,0.0139,0.0154,0.0144,0.0143,0.013,0.0128,0.0125,0.0107,0.0093,0.01,0.0077,0.0055,0.0024,0.0019,0.0013,0.0026,-0.002,-0.0019,-0.0018,0.004,0.0047,0.0052,0,0,0,0,0,0,0.0161,0.0151,0.014,0.0151,0.0143,0.0124,0.0127,0.0113,0.0099,0.0096,0.0062,0.0056,0.0051,0.0031,0.0027,0.0024,-0.0002,-0.0001,0.0044,0.005,0.0055,0.0075,-0.0004,0,0,0,0,0,0.0167,0.0176,0.0161,0.017,0.0167,0.0147,0.0143,0.0133,0.0118,0.0112,0.009,0.0068,0.0052,0.0046,0.0027,0.0028,-0.0008,0.0032,0.0037,0.0042,0.0054,0.0009,0.0011,-0.0012,-0.0012,-0.0013,0,0,0.0178,0.0174,0.0178,0.0175,0.0165,0.0178,0.0144,0.0146,0.0158,0.0108,0.0115,0.0084,0.0055,0.0054,0.0051,0.0041,0.0028,0.0044,0.0048,0.0057,0.0011,0.0013,0.0015,-0.0012,-0.0012,-0.0012,0,0,0.021,0.02,0.0218,0.0218,0.0212,0.0202,0.0206,0.0191,0.0184,0.0185,0.0151,0.0132,0.011,0.0093,0.0081,0.0106,0.0055,0.0098,0.0144,0.01,0.0102,0.0103,0.0052,0.0048,0.0104,0.0104,0.0104,0,0.0222,0.0245,0.0224,0.0243,0.0252,0.0219,0.0246,0.0236,0.0221,0.022,0.0198,0.0159,0.0132,0.0129,0.0137,0.0119,0.0081,0.0122,0.0107,0.0107,0.0107,0.0055,0.005,0.0107,0.0107,0.0107,0.0106,0,0.0268,0.0287,0.0299,0.0314,0.0321,0.0338,0.0326,0.0326,0.0309,0.0295,0.0282,0.0237,0.0216,0.0201,0.0178,0.0169,0.0137,0.0115,0.0092,0.0113,0.0057,0.005,0.0112,0.0111,0.011,0.0109,0,0,0.0293,0.0326,0.033,0.0355,0.0363,0.0375,0.0394,0.0403,0.0417,0.0381,0.039,0.035,0.0315,0.0299,0.0257,0.022,0.018,0.0175,0.0171,0.0127,0.0074,0.0051,0.004,0.0151,0.0151,0.015,0.0032,0,0.0335,0.0394,0.0397,0.0455,0.0485,0.0471,0.0495,0.0495,0.0482,0.0479,0.0419,0.041,0.0355,0.0344,0.0298,0.0212,0.0167,0.0214,0.0059,0.0054,0.0032,0.0034,0.0149,0.0027,0.0025,0.0024,0.0023,0,0.0377,0.0416,0.0484,0.0534,0.0546,0.0574,0.0606,0.0625,0.0607,0.0595,0.0563,0.051,0.0457,0.0403,0.0264,0.0294,0.0196,0.0119,0.0113,0.0068,0.0019,0.0001,0.001,0.0011,0.0012,0.0013,0.0014,0,0.0409,0.0473,0.0535,0.0553,0.0602,0.063,0.0654,0.0661,0.0691,0.067,0.0674,0.0591,0.0552,0.0424,0.0264,0.0263,0.0096,0.0071,-0.0046,-0.005,-0.0021,-0.0021,-0.0028,-0.0028,-0.0028,-0.0028,-0.0027,0,0.0452,0.05,0.0557,0.0591,0.0668,0.0682,0.0754,0.0759,0.0781,0.0819,0.074,0.073,0.0555,0.0435,0.0285,0.0098,0.0107,-0.0037,-0.0078,0.0006,0.0011,-0.0027,-0.0025,-0.0032,-0.0031,-0.003,-0.003,0,0.0478,0.0513,0.0589,0.0657,0.0687,0.0742,0.0832,0.0882,0.0887,0.0929,0.0926,0.0831,0.0671,0.0479,0.0261,0.0132,-0.0047,-0.0117,-0.0016,-0.005,-0.0171,-0.0164,-0.0255,-0.0256,-0.0258,-0.0259,-0.026,0,0.0496,0.0538,0.0638,0.0693,0.073,0.0819,0.0887,0.0934,0.0989,0.0987,0.1005,0.0871,0.0777,0.0459,0.0246,-0.0052,-0.0095,-0.0191,-0.0177,-0.0161,-0.0193,-0.0184,-0.0176,-0.0262,-0.0263,-0.0263,-0.0264,0,0.0529,0.0564,0.0628,0.0744,0.0829,0.0934,0.1026,0.1071,0.1118,0.1121,0.1071,0.0903,0.0716,0.0462,0.0225,0.0013,-0.0128,-0.0208,-0.0206,-0.0193,-0.0171,-0.0199,-0.019,-0.0269,-0.0268,-0.0267,-0.0267,0,0.0551,0.06,0.0686,0.0789,0.0902,0.1011,0.106,0.1119,0.117,0.1158,0.1134,0.0933,0.0818,0.0493,0.0278,0.0063,0.0006,-0.0059,-0.0066,-0.0063,0.0023,0.0081,0.0028,0,0,0,0,0,0.0571,0.0632,0.0726,0.0843,0.0957,0.1029,0.1139,0.1179,0.1215,0.1194,0.1169,0.0994,0.067,0.0532,0.0313,0.0232,-0.0043,-0.0034,-0.0124,-0.0297,-0.0291,-0.0224,0,0,0,0,0,0,0.0586,0.0674,0.0726,0.0872,0.0958,0.1095,0.117,0.1197,0.1185,0.1178,0.1014,0.0933,0.0621,0.0796,0.0307,0.0241,0.0151,-0.0182,-0.0187,-0.03,-0.0295,-0.029,-0.0219,0,0,0,0,0]}]]